2015 Mid Michigan Girls on the Run 5k

back to results

May. 17, 2015

2015 Mid Michigan Girls on the Run 5k
East Lansing, MI
Provided by Michigan Running Foundation


Mid Michigan Girls on the Run 5k
Age Group Results
May 17, 2015
Results by: Michigan Running Foundation

Female Overall Winners

Place Name Age Overall Total Time Pace
1 Jordyn Shipps 11 5 22:20.5 7:12/M

Female 12 and Under

Place Name Age Overall Total Time Pace
1 Lilly Evans 11 14 26:19.4 8:29/M
2 Lily Johnson 10 16 26:20.8 8:30/M
3 Hayley Lademann 12 17 26:31.6 8:33/M
4 Kelsey Pavlik 9 21 26:58.8 8:42/M
5 Isabella Waters 11 23 27:20.4 8:49/M
6 Frankie Calabrese Barton 9 27 27:35.3 8:54/M
7 Megan Pozsgai 11 28 27:49.1 8:58/M
8 Kiley Ward 11 29 28:01.7 9:02/M
9 Shannon Allen 10 31 28:22.6 9:09/M
10 Emily Wang 10 33 28:32.7 9:12/M
11 Alex Erbe 11 34 28:45.5 9:16/M
12 Erin Sermak 9 35 28:49.2 9:18/M
13 Ashlynn Putman 8 37 28:59.4 9:21/M
14 Abby Jager 10 38 29:08.8 9:24/M
15 Desiree Obuchowski 9 39 29:22.2 9:28/M
16 Kyra Townsend 11 41 29:27.3 9:30/M
17 Aubrey Rogers 8 45 29:40.1 9:34/M
18 Anna Delgado 10 48 29:42.2 9:35/M
19 Olivia Delgado 12 49 29:43.4 9:35/M
20 Quinn Skarich 9 50 29:46.7 9:36/M
21 Ellie Humble 10 53 29:54.0 9:39/M
22 Madison Taylor 9 55 29:56.7 9:39/M
23 Abigail Deppen 10 56 30:05.6 9:42/M
24 Jenaya Hill 10 58 30:20.2 9:47/M
25 Grace Rose 10 61 30:41.2 9:54/M
26 Claire Waligorski 11 62 30:50.5 9:57/M
27 Mia Harrant 10 64 30:57.9 9:59/M
28 Quincy Tressel 11 65 30:58.6 9:59/M
29 Lillian Vanbennekom 9 70 31:08.8 10:03/M
30 Caton Walter 11 72 31:14.0 10:05/M
31 Jayla Edwards 12 73 31:16.0 10:05/M
32 Kyra Shadduck 9 74 31:17.0 10:05/M
33 Dajia Burke 11 75 31:18.4 10:06/M
34 Dajia Burke 11 77 31:21.2 10:07/M
35 Amber Lademann 10 82 31:36.9 10:12/M
36 Brooklyn Zakoor 9 85 31:44.7 10:14/M
37 Jaden Zakoor 10 86 31:45.5 10:15/M
38 Malia Gonzalez 10 87 31:45.7 10:15/M
39 Adelyne Wood 9 92 32:01.6 10:20/M
40 Peyton Anderson 9 93 32:02.9 10:20/M
41 Adrienne Cohoon 10 97 32:27.7 10:28/M
42 Abigail Fults 11 98 32:31.0 10:29/M
43 Myra Johnson 11 99 32:32.7 10:30/M
44 Emma Bruckman 11 101 32:44.1 10:34/M
45 Amelia Spencley 10 104 32:47.3 10:35/M
46 Katharine Smith 11 107 32:57.9 10:38/M
47 Harper Isaacs 8 108 32:59.4 10:38/M
48 Ellie Feldpausch 10 110 33:03.9 10:40/M
49 Brenna Byars 12 112 33:10.6 10:42/M
50 Gloria Bao 9 115 33:18.1 10:45/M
51 Valerie Saul 12 119 33:24.6 10:46/M
52 Malia Lenneman 8 123 33:43.2 10:53/M
53 Ava Knoll 9 125 33:53.8 10:56/M
54 Raygen Jaques 9 128 33:58.6 10:57/M
55 Ava Nystrom 9 129 34:06.1 11:00/M
56 Alaina McQuillan 12 130 34:10.5 11:01/M
57 Sydney Smith 12 131 34:12.8 11:02/M
58 Sophia Garland 9 133 34:18.5 11:04/M
59 Ella Franklin 10 136 34:25.9 11:06/M
60 Gabbie Brya 10 137 34:26.2 11:06/M
61 Olivia Brya 11 138 34:28.3 11:07/M
62 Caroline Swords 11 140 34:38.7 11:10/M
63 Natalie Bushey 11 141 34:39.1 11:11/M
64 Elsie Paris 10 142 34:39.3 11:11/M
65 Madilyn Merritt 11 144 34:44.7 11:12/M
66 Alyssa Perry 8 145 34:52.7 11:15/M
67 Albri Larner 8 146 34:53.2 11:15/M
68 Ava Byars 9 148 34:54.8 11:15/M
69 Aveada Brown 11 149 34:55.8 11:16/M
70 Brooklyn Belill 10 152 35:00.1 11:17/M
71 Emma Bruff 12 154 35:01.3 11:18/M
72 Ella Kloeckner 10 155 35:03.3 11:18/M
73 Brianna Judkins 10 156 35:07.7 11:20/M
74 Sarah Barr 10 158 35:11.7 11:21/M
75 Brooklyn Samuel 11 160 35:17.5 11:23/M
76 Tabatha Gross 7 161 35:20.9 11:24/M
77 Danielle Wendling 11 163 35:23.7 11:25/M
78 Kira Patrick 9 165 35:27.5 11:26/M
79 Grace McCall 8 166 35:33.5 11:28/M
80 Sophia Jildeh 9 167 35:37.0 11:29/M
81 Tamaki Scribner 11 169 35:43.1 11:31/M
82 Chandra Juarez 10 171 35:44.6 11:32/M
83 Hailee Campbell 9 175 35:51.1 11:34/M
84 Julia Holden 11 177 35:54.6 11:35/M
85 Emma Goss 8 179 35:56.3 11:35/M
86 Madison Way 9 182 36:01.2 11:37/M
87 Emma Johnson 10 185 36:11.0 11:40/M
88 Sydnie Gillett 10 186 36:11.2 11:40/M
89 Emily Adado 10 187 36:16.5 11:42/M
90 Madailein Boyle 11 190 36:24.4 11:45/M
91 Mariah Durance-Oldham 9 191 36:25.1 11:45/M
92 Paniyota Gross 9 195 36:32.5 11:47/M
93 Teagan Winnie 11 196 36:33.2 11:47/M
94 Taylor Roberts 9 197 36:33.8 11:47/M
95 Kyra Metzer 10 202 36:52.3 11:54/M
96 Madison Bennett 9 204 36:54.6 11:54/M
97 Alana Rose 8 206 37:00.8 11:56/M
98 Sara Dammann 8 207 37:06.3 11:58/M
99 Mya Trevino 11 209 37:07.9 11:58/M
100 Joslyn Hofstetter 10 211 37:10.5 11:59/M
101 Cameron Phillipich 9 212 37:12.6 12:00/M
102 Rachel Buchholz 8 213 37:13.2 12:00/M
103 Bella Chan 9 217 37:31.3 12:06/M
104 Lindsey Wendling 11 218 37:33.2 12:07/M
105 Piper Chan 11 219 37:34.1 12:07/M
106 Neelege Sims 10 223 37:35.3 12:07/M
107 Chloe Douglas 9 224 37:36.8 12:08/M
108 Raven Paris 11 225 37:36.9 12:08/M
109 Claire Chrisinske 10 227 37:38.8 12:08/M
110 Elaina Schuesler 11 229 37:43.4 12:10/M
111 Lucia Hylen 6 234 38:03.2 12:16/M
112 Avery Gilson 10 236 38:07.7 12:18/M
113 Quinn Breslin 9 239 38:10.2 12:19/M
114 Emma Holley 9 240 38:14.6 12:20/M
115 Kaleigh Pfeifer 9 242 38:16.9 12:21/M
116 Braeden Faith Tokar 9 243 38:17.3 12:21/M
117 Reegan Foster 10 244 38:19.9 12:22/M
118 Madeline Ritter 12 246 38:20.1 12:22/M
119 Kennedy Mallory 11 247 38:22.9 12:23/M
120 Grace Wininger 10 249 38:24.4 12:23/M
121 Jordyn Lawrence 9 250 38:24.4 12:23/M
122 Audrianna Marlow 9 251 38:25.1 12:24/M
123 Jadyn Johnson 10 253 38:26.7 12:24/M
124 Brooke Warren 9 254 38:30.7 12:25/M
125 Alyssa Malzahn 11 256 38:36.0 12:27/M
126 Emma Fielder 10 261 38:51.3 12:32/M
127 Skyler Holmes 11 262 38:52.7 12:32/M
128 Emerson Williams 8 263 38:53.9 12:33/M
129 Lauren Zuckschwerdt 12 268 39:06.4 12:37/M
130 Haley Bashore 9 271 39:08.6 12:37/M
131 Liliana Bruff 9 272 39:12.3 12:39/M
132 Emma Burgess 9 273 39:12.4 12:39/M
133 Cailyn Adduddell 8 275 39:12.6 12:39/M
134 Samantha Goorin 9 276 39:12.9 12:39/M
135 Ava Bott 10 280 39:16.7 12:40/M
136 Victoria Potter 12 282 39:18.7 12:41/M
137 Olivia Jolly 10 285 39:24.4 12:43/M
138 Bella Spagnuolo 8 286 39:29.8 12:44/M
139 Kate Farnum 9 288 39:32.4 12:45/M
140 Mackynzie Tho-Biaz 10 289 39:33.5 12:45/M
141 Avery Walker 9 290 39:34.9 12:46/M
142 Melanie Merritt 9 291 39:35.8 12:46/M
143 Analise Chelotti 8 292 39:36.6 12:46/M
144 Alexa Ashton 9 296 39:38.2 12:47/M
145 Kallie Breslin 9 297 39:39.2 12:47/M
146 Sydney Knauff 10 301 39:44.5 12:49/M
147 Laura Belding 11 304 39:51.3 12:51/M
148 Elle Riegler 9 307 39:57.7 12:53/M
149 Cadence Kirby 12 310 40:05.0 12:56/M
150 Adeline Terry 8 311 40:06.5 12:56/M
151 Lauren Tabone 10 312 40:07.0 12:56/M
152 Ana Charles 11 314 40:08.2 12:57/M
153 Alison Pignataro 10 316 40:16.0 12:59/M
154 Olivia Phillips 8 317 40:18.5 13:00/M
155 Olivia Parker 9 318 40:23.0 13:02/M
156 Telexia Terpening 9 320 40:29.9 13:04/M
157 Lucy Roberts 7 321 40:31.3 13:04/M
158 Aurora Dardas 10 323 40:33.6 13:05/M
159 Kavya Tumbalam 9 324 40:33.8 13:05/M
160 Jillian Klaver 11 331 40:40.3 13:07/M
161 Rebecca Scott 10 335 40:43.7 13:08/M
162 Avery Toune 9 336 40:47.2 13:09/M
163 Brooke Wittenberg 9 337 40:48.9 13:10/M
164 Addison Delcamp 8 338 40:51.7 13:11/M
165 Olivia Winans 11 342 40:55.6 13:12/M
166 Aniah Buck 11 347 41:11.3 13:17/M
167 Rylee Anderson 10 348 41:12.4 13:17/M
168 Morgan Bagneschi 10 349 41:17.6 13:19/M
169 Alicia Hect 10 354 41:22.3 13:21/M
170 Adeline Nohel 8 356 41:23.6 13:21/M
171 Bailey Denslow 9 357 41:24.5 13:21/M
172 Aurali Garcia 9 361 41:36.6 13:25/M
173 Abby Burba 9 363 41:38.5 13:26/M
174 Jaedyn Kline 8 366 41:41.5 13:27/M
175 Sarah Reynolds 8 369 41:44.4 13:28/M
176 Audrey Mitchell 10 371 41:44.7 13:28/M
177 Rachel Ross 9 372 41:45.4 13:28/M
178 Zoya Mensah 10 373 41:48.4 13:29/M
179 Meredith Newland 8 374 41:48.5 13:29/M
180 Abby Rice 9 378 41:56.9 13:32/M
181 Kendalyn Gilliam 9 379 42:01.9 13:33/M
182 Ainara Garcia-Blanca 9 381 42:05.0 13:35/M
183 Isabella Fensom 8 384 42:09.9 13:36/M
184 Lileigh Freeman-Lawless 8 385 42:10.5 13:36/M
185 Julia Kelleher 9 386 42:12.2 13:37/M
186 Hailey Powers 10 388 42:17.3 13:38/M
187 Colette Sutton 9 391 42:22.3 13:40/M
188 Karah Preston 11 392 42:23.7 13:40/M
189 Maya Burtch 10 394 42:24.7 13:41/M
190 Harleen Virk 9 399 42:33.4 13:44/M
191 Lauryn Hopkins 9 400 42:44.0 13:47/M
192 Campbell Cronk 9 401 42:46.9 13:48/M
193 Brynne Birchmeier 9 403 43:00.2 13:52/M
194 Kennedy Birchmeier 8 404 43:00.8 13:52/M
195 Abigail Noonan 10 405 43:02.1 13:53/M
196 Brianna Dent 11 407 43:05.9 13:54/M
197 Makayla Dent 12 408 43:06.8 13:54/M
198 Alexandria Charles 10 412 43:08.4 13:55/M
199 Hanalei Jewell 8 413 43:09.2 13:55/M
200 Ellie Brannon 9 414 43:09.9 13:55/M
201 Addison McNamara 11 416 43:10.4 13:55/M
202 Isabella St Clair 10 419 43:15.7 13:57/M
203 Maliah Gonzalez 11 420 43:19.3 13:58/M
204 Hannah Yeom 10 421 43:22.2 13:59/M
205 Kate McAndrews 10 424 43:25.6 14:00/M
206 Amelia Tuller 10 426 43:28.9 14:01/M
207 Mallory Nicotra 8 427 43:32.4 14:03/M
208 Alexis Bruff 8 431 43:37.2 14:04/M
209 Alysiana Broughman 10 433 43:38.4 14:05/M
210 Zoey Schnebelt 11 434 43:38.6 14:05/M
211 Samantha Birchmeier 12 436 43:40.2 14:05/M
212 Felicia Allen 9 437 43:40.8 14:05/M
213 Raelyn Williams 8 438 43:46.0 14:07/M
214 Joslyn Sullivan 8 439 43:46.7 14:07/M
215 Keyra Garcia 9 440 43:51.7 14:09/M
216 Annabelle Dimaggio 9 443 43:53.7 14:09/M
217 Lacey Wandrie 9 444 43:53.9 14:09/M
218 Adrianna Hahn 12 445 43:54.7 14:10/M
219 Emma Elias 9 448 43:57.1 14:11/M
220 Lily Block 8 451 43:59.2 14:11/M
221 Elizabeth Rapson 10 456 44:03.6 14:13/M
222 Haven Song 9 459 44:07.2 14:14/M
223 Sasha Chip 8 460 44:08.5 14:14/M
224 Ellie Trudeau 10 461 44:09.2 14:15/M
225 Madalyn Gleason 8 464 44:09.7 14:15/M
226 Sophie Grover 9 465 44:10.1 14:15/M
227 Casey Viger 8 470 44:15.1 14:16/M
228 Claire Wininger 12 472 44:16.8 14:17/M
229 Maggie Carney 9 478 44:25.7 14:20/M
230 Lindsey Washburn 9 479 44:26.8 14:20/M
231 Summer Lowe 9 480 44:27.1 14:20/M
232 Josie Bauman 8 482 44:29.1 14:21/M
233 Karly Roy 11 484 44:31.1 14:22/M
234 Delaney Bentoske 10 485 44:31.2 14:22/M
235 Kaley Boyle 9 487 44:33.6 14:22/M
236 Olivia Mann 8 488 44:34.7 14:23/M
237 Lucy Candeub 10 489 44:34.8 14:23/M
238 Vaeh Cooke 8 490 44:35.9 14:23/M
239 Madelyn Martinson 9 491 44:36.2 14:23/M
240 Sophie Voss 9 493 44:38.2 14:24/M
241 Emma Brown 9 495 44:40.1 14:25/M
242 Allie Greene 9 500 44:43.0 14:25/M
243 Amber Greene 9 501 44:43.6 14:25/M
244 Caroline Thelen 9 502 44:45.7 14:26/M
245 Cora Hoeft 11 503 44:47.0 14:27/M
246 Rylee Spayde 9 507 44:59.4 14:31/M
247 Alexis Miller 9 509 45:03.3 14:32/M
248 Katherine Weslock 9 510 45:03.7 14:32/M
249 Emma Fox 11 512 45:07.0 14:33/M
250 Alivia Rivard 8 513 45:08.0 14:34/M
251 Madison Bendall 10 514 45:08.2 14:34/M
252 Lamaya Johnson 11 515 45:08.7 14:34/M
253 Sophia Barrel 9 518 45:11.6 14:35/M
254 Uma Kulkarni 10 519 45:11.8 14:35/M
255 Molly Eickholt 10 524 45:16.8 14:36/M
256 Frances Wilks 9 526 45:23.2 14:38/M
257 Violet Hunt 9 528 45:27.7 14:40/M
258 Kera Spaeth 11 530 45:40.7 14:44/M
259 Julia Ruan 10 531 45:41.7 14:44/M
260 Sydney Tompkins 9 534 45:43.4 14:45/M
261 Olivia Vicary 11 535 45:44.7 14:45/M
262 Tylin Patterson 9 536 45:44.9 14:45/M
263 Isabella Meyer 9 537 45:46.0 14:46/M
264 Haley Carpenter 10 539 45:47.6 14:46/M
265 Maggie Kromer 9 541 45:52.3 14:48/M
266 Kalyn Trevino 9 542 45:52.6 14:48/M
267 Emily Smith 10 544 45:53.1 14:48/M
268 Kelsea Barcelow 9 549 45:55.5 14:49/M
269 Olivia Lindsey 11 550 45:55.6 14:49/M
270 Hadley Doll 10 552 45:55.8 14:49/M
271 Elaina Rigterink 8 554 45:58.6 14:50/M
272 Vanessa Haman 10 556 46:00.7 14:50/M
273 Jillian Peterson 8 557 46:03.7 14:51/M
274 Danielle Peterson 8 560 46:15.8 14:55/M
275 Sophia Neal 9 561 46:20.3 14:57/M
276 Janell Brown 9 562 46:20.5 14:57/M
277 Chelsea Goudie 10 563 46:21.4 14:57/M
278 Allie Richardson 9 564 46:22.8 14:57/M
279 Alexis Birchmeier 8 569 46:28.6 14:59/M
280 Braelyn Charles 8 573 46:38.1 15:03/M
281 Montana Hernandez 11 575 46:43.8 15:04/M
282 Alaina Pabbathi 10 576 46:45.4 15:05/M
283 Rilee Masterson 9 578 46:46.6 15:05/M
284 Kathryn Michon 11 583 46:54.9 15:08/M
285 Haley Vincke 11 585 46:56.2 15:08/M
286 Grace Jin 9 587 46:58.4 15:09/M
287 Alexandra Moore 9 588 46:59.1 15:09/M
288 Zoey Coye 8 595 47:09.6 15:13/M
289 Leah Miller 9 596 47:10.9 15:13/M
290 Payton Gutting 9 599 47:16.1 15:15/M
291 Haley Clark 9 601 47:17.1 15:15/M
292 Zoey Freeman 5 604 47:22.0 15:17/M
293 Madison Wendling 8 605 47:24.7 15:17/M
294 Emersyn Miller 9 608 47:25.3 15:18/M
295 Emma Simmons 9 610 47:26.4 15:18/M
296 Alyson Shane 9 611 47:32.2 15:20/M
297 Victoria Jefferson 12 612 47:34.5 15:21/M
298 Kara Wendling 8 617 47:50.2 15:26/M
299 Addyson Lampron 7 619 48:10.7 15:32/M
300 Carly Pavka 9 621 48:14.2 15:34/M
301 Hazel Stone 7 624 48:15.2 15:34/M
302 Alyssa Thomison 10 627 48:20.6 15:35/M
303 Ava Champion 10 628 48:21.0 15:36/M
304 Kayla Brunner 8 630 48:22.8 15:36/M
305 Nagoya Hinze 8 633 48:25.1 15:37/M
306 Nikkia Burnett 10 634 48:28.5 15:38/M
307 Savanna Collins 8 635 48:29.2 15:38/M
308 Cassie Bedard 11 636 48:29.4 15:38/M
309 Kenzee Defrenn 9 638 48:31.0 15:39/M
310 Meghan Heiler 10 639 48:31.6 15:39/M
311 Callen Duncan 9 641 48:32.3 15:39/M
312 Sabrina Gray 8 645 48:36.1 15:41/M
313 Addison Spagnuolo 10 648 48:36.9 15:41/M
314 Henna Nellis 10 649 48:38.8 15:41/M
315 Sarah Tabone 10 653 48:45.3 15:44/M
316 Dannika Campbell 7 654 48:45.7 15:44/M
317 Avery Krupp 9 655 48:49.5 15:45/M
318 Jennifer Steffes 10 656 48:53.4 15:46/M
319 Harley Pfeiffer 9 660 49:01.3 15:49/M
320 Maija Phillips 12 663 49:03.8 15:49/M
321 Sydney Isham 9 664 49:12.3 15:52/M
322 Nevaeh Adams 10 665 49:14.7 15:53/M
323 Madison Sumpter 11 670 49:22.1 15:55/M
324 Marysa Bolin 8 671 49:22.8 15:55/M
325 Emily Humphrey 9 673 49:25.9 15:56/M
326 Julianne Michon 9 675 49:27.3 15:57/M
327 Norah Logan 9 676 49:27.8 15:57/M
328 Neelu Jaberi 9 677 49:28.3 15:57/M
329 Marissa Carne 10 680 49:32.7 15:59/M
330 Mikayla Bashore 8 685 49:42.0 16:02/M
331 Kiley Murray 9 686 49:43.4 16:02/M
332 Samantha Thayer 11 689 49:44.9 16:03/M
333 Cadette Thelen 9 690 49:45.0 16:03/M
334 Julia Burk 9 691 49:55.3 16:06/M
335 Madeline Trentin 8 694 50:02.4 16:08/M
336 Elizabeth Potter 9 695 50:04.8 16:09/M
337 Harper Wilkinson 10 697 50:09.7 16:11/M
338 California Mast 9 699 50:11.7 16:11/M
339 Melanie Fowler 9 702 50:13.8 16:12/M
340 Xeonna Fields 10 705 50:16.2 16:13/M
341 Georgia Candeub 8 708 50:17.4 16:13/M
342 Avery Coss 10 709 50:21.3 16:15/M
343 Amara Jackson 11 714 50:49.1 16:24/M
344 Madelyn Carrier 9 715 50:52.1 16:25/M
345 Ella Corbat 8 721 51:15.3 16:32/M
346 Alyssa Warren 9 724 51:17.9 16:33/M
347 Addison Hart 8 725 51:19.4 16:33/M
348 Sophie Young 10 727 51:21.3 16:34/M
349 Savannah Weck 12 729 51:35.0 16:38/M
350 Addison Booth 9 731 51:37.1 16:39/M
351 Reagan McCarthy 10 733 51:45.7 16:42/M
352 Faith Rodriguez 9 734 51:47.3 16:42/M
353 Naia Smith 11 739 51:58.3 16:46/M
354 Arohi Nair 9 742 52:14.2 16:51/M
355 Madison Denman 11 743 52:14.9 16:51/M
356 Kennidy Denman 9 745 52:16.9 16:52/M
357 Mckenzi Filipiak 9 750 52:28.1 16:55/M
358 Holly Gatza 8 751 52:31.5 16:56/M
359 Hayleigh Lachance 9 752 52:31.7 16:56/M
360 Ava Gatza 10 753 52:32.3 16:57/M
361 Marissa Arman 10 758 52:35.5 16:58/M
362 Kyleigh Burtley 10 761 52:47.4 17:02/M
363 Eliza Latunski 10 765 53:05.6 17:07/M
364 Bailley Powers 9 766 53:06.1 17:08/M
365 Alexis Remington-Hart 10 771 53:16.7 17:11/M
366 Chloe Sands 11 772 53:17.9 17:11/M
367 Liliana Mota Cichy 8 773 53:18.6 17:12/M
368 Joslyn Danek 10 775 53:23.1 17:13/M
369 Bella Lming 11 776 53:23.7 17:13/M
370 Hailey Rolfe 9 779 53:27.8 17:15/M
371 Sophia Stiles 9 780 53:35.9 17:17/M
372 Urja Sharma 11 782 53:38.2 17:18/M
373 Saaya Ono 9 783 53:38.4 17:18/M
374 Cerrina Cole 9 788 53:42.5 17:19/M
375 Grace Ingram 7 790 53:51.7 17:22/M
376 June White 9 793 53:55.2 17:24/M
377 Lara Adolphson 10 797 54:11.6 17:29/M
378 Savannah Dansby 9 799 54:12.9 17:29/M
379 Madeline Prelesnik 9 800 54:14.6 17:30/M
380 Madison Scott 10 803 54:38.7 17:37/M
381 Madison Kirby 10 805 54:39.7 17:38/M
382 Kailey Spaeth 8 806 54:42.7 17:39/M
383 Amelia Lektzian 10 807 54:43.5 17:39/M
384 Audrey Reagan 10 808 54:44.3 17:39/M
385 Breanna McNamara 11 809 54:45.9 17:40/M
386 Jennifer Rairigh 9 818 55:19.4 17:51/M
387 Megan Kolleth 10 820 55:23.4 17:52/M
388 Elena Balavitch 8 821 55:24.9 17:52/M
389 Kayla Henning 10 822 55:26.0 17:53/M
390 Keira Jutkowitz 8 824 55:27.9 17:53/M
391 Sophie Pager 9 828 55:37.5 17:56/M
392 Raegan Taylor 9 829 55:37.9 17:56/M
393 Lucinda Ackerman 8 831 55:38.2 17:57/M
394 Meriyah Gamboa 8 832 55:38.2 17:57/M
395 Ireland Brown 9 834 55:42.2 17:58/M
396 Claudia Hanley 10 836 55:44.2 17:59/M
397 Madison Diebler 12 838 55:49.7 18:00/M
398 Lily Walters 8 839 55:51.9 18:01/M
399 Paige Clark 10 842 56:07.8 18:06/M
400 Molly Winson 9 843 56:11.1 18:07/M
401 Reese Jordan 8 845 56:14.9 18:08/M
402 Genevieve Metevier 9 846 56:16.5 18:09/M
403 Alice Ndagitimana 11 848 56:26.9 18:12/M
404 Neela Willson 9 849 56:28.3 18:13/M
405 Katlyn Bostwick 11 850 56:29.7 18:13/M
406 Sarah Cornell 10 852 56:30.6 18:14/M
407 Olivia Terry 11 854 56:35.8 18:15/M
408 Shelby Lawver 11 857 57:22.1 18:30/M
409 Elizabeth Hall 9 858 57:33.5 18:34/M
410 Estella Kolkema 9 863 58:01.7 18:43/M
411 Cassie Zachary 11 865 58:12.6 18:46/M
412 Ellia Davila 9 866 58:31.5 18:53/M
413 Yasmine Riley 9 867 58:36.2 18:54/M
414 Kasani Stitt 9 869 58:48.4 18:58/M
415 Evelyn Delaney 10 873 58:55.5 19:00/M
416 Angel Buck 11 874 58:59.3 19:02/M
417 Jordyn Parker 10 875 59:04.5 19:03/M
418 Faith Birchmeier 12 878 59:55.6 19:20/M
419 Karley Bullard 9 879 59:58.2 19:21/M
420 Summer Darling 10 883 1:00:02.1 19:22/M
421 Emonii Adams 9 885 1:00:04.7 19:23/M
422 Jadyn Alagna-Adkins 11 886 1:00:09.0 19:24/M
423 Gabriella Keeler 9 888 1:00:26.3 19:30/M
424 Alana Riddell 9 889 1:00:31.3 19:31/M
425 Colter Arianna 9 890 1:00:39.8 19:34/M
426 Thalia Hodelin 9 891 1:00:40.4 19:34/M
427 Paighton Argue 11 893 1:01:04.5 19:42/M
428 Kyla Jacskon 11 895 1:01:27.5 19:49/M
429 Julienna Bergman 8 897 1:01:30.1 19:50/M
430 Savannah Wallace 11 900 1:01:32.1 19:51/M
431 Allyssa Kambasha 12 901 1:01:33.3 19:51/M
432 Makayla Bahr 10 902 1:01:36.6 19:52/M
433 Kieran Ladd 8 903 1:01:57.3 19:59/M
434 Taylor Bennett 9 904 1:02:10.7 20:03/M
435 Xara Arning 9 906 1:09:30.3 22:25/M
436 Adia Hiaeshutter-Rice 8 908 1:10:15.9 22:40/M
437 Alison Ashbrook 9 910 1:10:23.1 22:42/M
438 Julia Ellsworth 10 911 1:10:23.1 22:42/M
439 Audrianna Marlow 9 912 1:12:01.7 23:14/M
440 Reyna Atkinson 8 913 1:12:02.6 23:14/M
441 Vada Tanner 10 914 1:12:55.9 23:31/M
442 Avery McDonald 9 917 1:19:52.4 25:46/M

Female 13 to 17

Place Name Age Overall Total Time Pace
1 Caitlyn Bruff 14 7 23:41.9 7:38/M
2 Katie Beekman 15 57 30:09.6 9:44/M
3 Braelyn Hill 15 59 30:21.2 9:47/M
4 Heather Sands 14 117 33:21.5 10:45/M
5 Ruby Saul 13 120 33:25.8 10:47/M
6 Audrey Noeker 15 170 35:44.3 11:32/M
7 Riley Vandendries 13 176 35:54.1 11:35/M
8 Grace Waligorski 13 181 36:00.1 11:37/M
9 Grace Brown 14 193 36:26.2 11:45/M
10 Hannah Walters 13 210 37:08.6 11:59/M
11 Shelby Vincke 17 220 37:34.3 12:07/M
12 Kelsi Allen 16 245 38:20.0 12:22/M
13 Paris Leek 14 345 40:59.6 13:13/M
14 Makenzie Tenbrink 14 360 41:26.3 13:22/M
15 Janelle Kline 14 368 41:42.5 13:27/M
16 Alison Weslock 17 508 45:02.6 14:32/M
17 Lauren Gross 13 584 46:55.4 15:08/M
18 Ariel Adams 14 667 49:17.0 15:54/M
19 Anna Griffin 13 668 49:18.4 15:54/M
20 Avianna Jackson 15 713 50:46.8 16:23/M
21 Mackenzie Hoy 13 716 51:00.2 16:27/M
22 Zoe Otte 14 718 51:07.2 16:29/M
23 Becca Jo Ibarra 16 722 51:15.9 16:32/M
24 Anaya Powell 13 735 51:53.2 16:44/M
25 Chloe Lachance 15 754 52:33.2 16:57/M
26 Alisha Hillman 13 769 53:13.3 17:10/M
27 Allison Cardinal 16 887 1:00:09.9 19:24/M
28 Samantha Whitehead 17 896 1:01:27.9 19:49/M

Female 18 to 29

Place Name Age Overall Total Time Pace
1 Blake Moore 26 12 25:43.7 8:18/M
2 Kathryn Schneyer 22 13 25:47.0 8:19/M
3 Caitlyn Brunotte 21 44 29:39.1 9:34/M
4 Jamie Thompson 26 46 29:40.1 9:34/M
5 Breanne Mason 25 69 31:04.1 10:01/M
6 Brogan Holmes 18 89 31:47.8 10:15/M
7 Dawanna Dugas 27 100 32:40.4 10:32/M
8 Anne Osgood 26 118 33:24.4 10:46/M
9 Jennifer Anderson 24 124 33:52.0 10:55/M
10 Emily Wenzlick 18 162 35:21.9 11:24/M
11 Charlene Andron 27 184 36:05.8 11:38/M
12 Kristin Lee 29 203 36:53.3 11:54/M
13 Briana Kloeckner 19 221 37:35.0 12:07/M
14 Allison Chorey 18 226 37:38.7 12:08/M
15 Amber Whitman 29 228 37:41.8 12:09/M
16 Sarah Denison 29 232 37:52.3 12:13/M
17 Ashley Chaplin 25 264 38:57.9 12:34/M
18 Megan Buck 25 283 39:19.4 12:41/M
19 Michelle Oniel 21 293 39:37.1 12:47/M
20 Dezirae Roberts 23 303 39:49.6 12:51/M
21 Charleigh Birchmeier 19 305 39:51.9 12:51/M
22 Stevie Church 18 353 41:21.8 13:20/M
23 Rebecca Ross 21 367 41:41.8 13:27/M
24 Tara Dasigi 26 415 43:10.2 13:55/M
25 Nichole Thornton 26 449 43:57.2 14:11/M
26 Megan Rathbun 24 477 44:23.4 14:19/M
27 Jenna Wendling 28 483 44:30.8 14:21/M
28 Abigail Seamon 22 505 44:50.5 14:28/M
29 Cara Miller 19 511 45:05.2 14:33/M
30 Amanda Decker 19 522 45:15.5 14:36/M
31 Katie Johnson 26 529 45:37.4 14:43/M
32 Hannah Vicary 18 540 45:48.0 14:46/M
33 Brianna Lewis 20 543 45:52.6 14:48/M
34 Sydney Harvey 18 547 45:54.6 14:48/M
35 Danielle Trevino 29 548 45:54.8 14:48/M
36 Lauren Clark 20 555 45:59.3 14:50/M
37 Rachel Vincke 20 565 46:25.2 14:58/M
38 Melissa Ledesma 27 581 46:49.3 15:06/M
39 Dana Gross 19 590 47:00.9 15:10/M
40 Megan Winans 25 603 47:19.7 15:16/M
41 Stephanie Mahoney 26 661 49:01.5 15:49/M
42 Melanie Latson 25 662 49:01.7 15:49/M
43 Randi Ganssley 25 679 49:32.4 15:59/M
44 Kait Stockheimer 26 683 49:36.1 16:00/M
45 Chaleia Washington 27 684 49:36.2 16:00/M
46 Kylie Smith 25 696 50:06.0 16:10/M
47 Jessica Ruby 18 723 51:16.9 16:32/M
48 Aubrey Houghtaling 18 767 53:08.5 17:08/M
49 Nicole Kent 25 795 54:02.1 17:26/M
50 Nicole Venable 27 798 54:12.0 17:29/M
51 Megan Sidge 22 826 55:35.8 17:56/M
52 Erica Nishon 26 827 55:36.2 17:56/M
53 Laynee Willson 18 851 56:30.3 18:14/M
54 Jessica Cousino 26 872 58:53.4 19:00/M
55 Kate Capeneka 22 880 59:59.0 19:21/M
56 Kiley Ploehu 19 881 1:00:01.4 19:22/M
57 Chrysti MacCombs 28 882 1:00:01.8 19:22/M
58 Sinead Redmond 25 909 1:10:16.4 22:40/M

Female 30 to 40

Place Name Age Overall Total Time Pace
1 Jennie Waters 39 24 27:21.5 8:49/M
2 Megan Sweers 35 25 27:35.3 8:54/M
3 Shallon Everett 37 40 29:23.3 9:29/M
4 Misty Fitzpatrick 31 43 29:35.4 9:33/M
5 Shatoya Austin 35 60 30:25.3 9:49/M
6 Shelly Vandendries 38 67 31:01.1 10:00/M
7 Stephanie Edwards 39 79 31:24.3 10:08/M
8 Jodie Lademann 36 83 31:37.8 10:12/M
9 Andrea Anderson 37 94 32:16.3 10:25/M
10 Erin Cohoon 36 96 32:26.8 10:28/M
11 Carol Murray 39 114 33:17.4 10:44/M
12 Jennifer Jaques 36 126 33:55.3 10:56/M
13 Deborah Schaefer 37 147 34:53.5 11:15/M
14 Talia Belill 37 153 35:01.2 11:18/M
15 Megan Tressel 40 157 35:11.6 11:21/M
16 Melissa Roberts 35 198 36:37.6 11:49/M
17 Kelly Rose 39 205 36:58.5 11:55/M
18 Karie Hofstetter 37 214 37:13.3 12:00/M
19 Laura Michels 38 215 37:15.4 12:01/M
20 Michelle Phillipich 39 216 37:16.5 12:01/M
21 Stephanie Kloeckner 39 231 37:46.0 12:11/M
22 Patricia Paris 39 233 37:58.7 12:15/M
23 Tali Hylen 36 237 38:08.0 12:18/M
24 Rachelle Parsons 34 241 38:14.9 12:20/M
25 Amy Maier 39 252 38:26.1 12:24/M
26 Angela Warren 37 255 38:35.0 12:27/M
27 Tiffany Grubaugh 33 257 38:36.6 12:27/M
28 Jennifer Sanders 36 258 38:46.2 12:30/M
29 Becky Fielder 40 260 38:50.8 12:32/M
30 Jamie Williams 39 265 38:59.1 12:35/M
31 Betsy Herrick 39 269 39:07.3 12:37/M
32 Melodie Burgess 39 277 39:13.5 12:39/M
33 Julie Kelley 37 278 39:14.6 12:39/M
34 Tracy Bruff 40 279 39:15.9 12:40/M
35 Jennifer Bott 40 281 39:18.6 12:41/M
36 Amanda Spagnuolo 37 287 39:30.8 12:45/M
37 Erin Chelotti 36 294 39:37.1 12:47/M
38 Elizabeth Stomski 34 295 39:37.9 12:47/M
39 Krystina Bolin 32 298 39:41.1 12:48/M
40 Jayne Franklin 39 299 39:43.6 12:49/M
41 Krista Johnson 37 300 39:44.1 12:49/M
42 Jessica Warren 34 315 40:10.6 12:57/M
43 Alana Pignataro 39 327 40:37.1 13:06/M
44 Jeri Terpening 34 333 40:42.9 13:08/M
45 Patricia Goorin 40 339 40:52.1 13:11/M
46 Megan Mullin 38 340 40:53.8 13:11/M
47 Da'Neese Wells 40 346 41:06.2 13:15/M
48 Leslie Bagneschi 38 350 41:19.8 13:20/M
49 Nicole Tokar 38 352 41:21.3 13:20/M
50 Selena Meder 37 355 41:22.3 13:21/M
51 Kayla Nohel 31 358 41:24.7 13:21/M
52 Kelly Walker 37 362 41:37.0 13:25/M
53 Holly Wolniakowski 31 364 41:39.2 13:26/M
54 Erica Newland 33 365 41:40.7 13:26/M
55 Kristen Mitchell 31 370 41:44.4 13:28/M
56 Heather Nolen 35 377 41:56.3 13:32/M
57 Shannan Gilliam 40 380 42:02.5 13:34/M
58 Joanna Freeman 31 383 42:09.5 13:36/M
59 Stacey Johnson 34 387 42:13.2 13:37/M
60 Andrea Jackson 36 389 42:18.4 13:39/M
61 Stanlyn Powers 40 390 42:18.6 13:39/M
62 Jessica Cooper 39 395 42:25.0 13:41/M
63 Katie Flannery 40 396 42:26.5 13:41/M
64 Korrie Birchmeier 34 409 43:07.5 13:55/M
65 Kimberly Garland 38 417 43:10.4 13:55/M
66 Michelle Jewelll 40 418 43:10.6 13:55/M
67 Rebecca McAndrews 34 423 43:22.6 13:59/M
68 Jennifer Rice 33 425 43:27.4 14:01/M
69 Jamie Bruff 35 430 43:36.6 14:04/M
70 Jennifer Crawford 38 432 43:37.8 14:04/M
71 Abbie Broughman 34 435 43:39.5 14:05/M
72 Kelly Gluszewski 40 441 43:52.5 14:09/M
73 Holly Hemgesberg 35 442 43:53.5 14:09/M
74 Kristen Casby 33 446 43:54.8 14:10/M
75 Sara Golab 34 447 43:55.4 14:10/M
76 Harpreet Grewal 39 452 44:00.5 14:12/M
77 Leah Morin 35 458 44:05.9 14:13/M
78 Carolyn Watters 34 462 44:09.3 14:15/M
79 Meg Gleason 38 468 44:12.4 14:15/M
80 Virginia Zakoor 33 469 44:13.4 14:16/M
81 Michelle Washburn 30 481 44:27.6 14:20/M
82 Nichole Martinson 35 494 44:38.3 14:24/M
83 Casey Voss 35 498 44:41.9 14:25/M
84 Shawna Boyle 39 499 44:42.3 14:25/M
85 Laura Thiel 33 506 44:59.1 14:31/M
86 Jessica Rogers 32 516 45:09.6 14:34/M
87 Cindi Robinson 33 517 45:09.6 14:34/M
88 Katy Lindstrom 31 521 45:12.9 14:35/M
89 Amber Hunt 34 525 45:20.7 14:37/M
90 Sarah Brya 38 527 45:23.8 14:38/M
91 Susan Meyer 35 538 45:46.2 14:46/M
92 Traci Barcelow 38 551 45:55.6 14:49/M
93 Pamela McHugh 39 558 46:10.6 14:54/M
94 Stephanie Haman 34 559 46:15.4 14:55/M
95 Shawn Richardson 39 567 46:27.8 14:59/M
96 Patrice Brown 37 568 46:28.0 14:59/M
97 Terri Fensom 39 577 46:46.5 15:05/M
98 Erin Moore 38 589 46:59.3 15:09/M
99 Meghan Ritchey 34 593 47:08.9 15:12/M
100 Brandy Gutting 37 600 47:16.3 15:15/M
101 Christina Freeman 36 606 47:25.0 15:18/M
102 Heather Miller 37 607 47:25.0 15:18/M
103 Ellen Simmons 40 609 47:25.6 15:18/M
104 Amy Heldreth 31 614 47:38.0 15:22/M
105 Sara Fowler 36 615 47:38.4 15:22/M
106 Christina Pavka 34 623 48:14.8 15:34/M
107 Amanda Stone 34 626 48:19.5 15:35/M
108 Amanda Lampron 34 629 48:21.1 15:36/M
109 Jody Brunner 40 631 48:24.0 15:37/M
110 Amanda Bedard 30 640 48:32.2 15:39/M
111 Shawn Heiler 40 642 48:32.9 15:39/M
112 Jodi Defrenn 35 643 48:33.5 15:40/M
113 Erica Baca 38 647 48:36.5 15:41/M
114 Hayley Nellis 40 650 48:42.5 15:43/M
115 Danielle Campbell 33 651 48:44.7 15:43/M
116 Nicole Pfeiffer 34 659 49:01.1 15:49/M
117 Justina Miller 38 666 49:15.2 15:53/M
118 Megan Logan 40 678 49:30.0 15:58/M
119 Shawntel Henry 40 681 49:33.9 15:59/M
120 Kysha Crenshaw 38 682 49:34.4 15:59/M
121 Amy Champion 39 703 50:13.9 16:12/M
122 Erika Reagan 39 707 50:17.2 16:13/M
123 Nicole Coss 40 710 50:21.5 16:15/M
124 Nicole Schei 33 711 50:25.9 16:16/M
125 Mary Carrier 40 717 51:06.7 16:29/M
126 Amy Freeman 37 719 51:09.1 16:30/M
127 Beth Corbat 34 720 51:11.8 16:31/M
128 Kimberly Roddy 36 726 51:20.7 16:34/M
129 Andrea St Clair 40 737 51:55.0 16:45/M
130 Jennifer Smith 30 738 51:56.3 16:45/M
131 Jenny Dixon 40 740 51:59.4 16:46/M
132 Feliz Rodriguez 37 741 52:02.2 16:47/M
133 Amanda Newman 32 748 52:21.1 16:53/M
134 Michelle Filipiak 39 749 52:26.6 16:55/M
135 Vershawna White 37 757 52:35.3 16:58/M
136 Brooke Coffey 35 760 52:41.3 17:00/M
137 Nikki Remington 36 778 53:27.3 17:15/M
138 Stacy Rolfe 40 781 53:36.6 17:17/M
139 Margaret Terry 36 785 53:39.9 17:18/M
140 Ann White 38 794 53:56.7 17:24/M
141 Laura Scott 32 804 54:39.1 17:38/M
142 Stacy Lektzian 38 812 55:00.6 17:45/M
143 Jessica Hart 32 814 55:08.7 17:47/M
144 Jessica Douglas 32 815 55:17.8 17:50/M
145 Amy Flanner 34 823 55:26.5 17:53/M
146 Heather Taylor 34 830 55:38.2 17:57/M
147 Kerry Munsey 36 835 55:44.1 17:59/M
148 Lona Oliver 35 840 55:53.0 18:02/M
149 Kari Walters 39 844 56:13.0 18:08/M
150 Virginia Metevier 40 847 56:19.8 18:10/M
151 Marquetta Grantham 30 855 56:36.2 18:15/M
152 Luke Terry 39 856 56:36.6 18:15/M
153 Kelley Mullinix 39 876 59:06.5 19:04/M
154 Molly Bergman 40 898 1:01:32.0 19:51/M

Female 41 to 50

Place Name Age Overall Total Time Pace
1 Tina Alagna 48 11 25:25.1 8:12/M
2 Mary Hemenway 48 20 26:43.4 8:37/M
3 Angela Calabrese Barton 46 26 27:35.3 8:54/M
4 Mary Crowley 47 32 28:29.8 9:11/M
5 Suzie Joss 48 66 30:59.0 10:00/M
6 Kristine Megge 46 95 32:20.6 10:26/M
7 Michelle bechab 44 102 32:45.1 10:34/M
8 Sarah Spencley 42 111 33:04.1 10:40/M
9 Vonda Evans 42 113 33:12.9 10:43/M
10 Leigh Volkers 45 121 33:29.6 10:48/M
11 Tammy Smith 41 132 34:15.5 11:03/M
12 Lorry Young 41 172 35:50.7 11:34/M
13 Shannon Barr 41 174 35:51.0 11:34/M
14 Jill Holden 41 178 35:55.0 11:35/M
15 Holly Mulligan 44 192 36:25.2 11:45/M
16 Dawn Fults 45 194 36:27.2 11:45/M
17 Tracey Booth 49 201 36:51.2 11:53/M
18 Christina Noeker 44 235 38:04.5 12:17/M
19 Kelly Wininger 42 248 38:23.9 12:23/M
20 Michelle Bashore 42 274 39:12.5 12:39/M
21 Tammt Farnum 44 309 40:02.8 12:55/M
22 Stephanie Hopkins 42 319 40:27.1 13:03/M
23 Chandra Juarez 45 329 40:39.9 13:07/M
24 Rebecca Fedewa 42 334 40:42.9 13:08/M
25 Jeanette Warren 49 375 41:50.0 13:30/M
26 Julie Burtch 47 393 42:24.4 13:41/M
27 Deanne Kelleher 43 397 42:27.2 13:42/M
28 Marybeth Birchmeier 50 410 43:07.7 13:55/M
29 Stacey Williams 41 453 44:01.7 14:12/M
30 Karen Cronk 43 466 44:10.7 14:15/M
31 Heather Erbe 41 471 44:16.0 14:17/M
32 Molly Carney 41 475 44:18.9 14:17/M
33 Rachel Knox 42 476 44:22.8 14:19/M
34 Kara Zech Thelen 42 504 44:48.4 14:27/M
35 Tina Franks 46 533 45:42.2 14:45/M
36 Jennifer Shapiro 42 545 45:53.6 14:48/M
37 Kelly Preston 42 546 45:54.5 14:48/M
38 Marlene Sherwood 50 570 46:31.5 15:00/M
39 Andrea Charles 46 572 46:36.4 15:02/M
40 Jenny Cooke 42 574 46:43.3 15:04/M
41 Rene Vincke 49 582 46:51.7 15:07/M
42 Hisayo Allen 46 591 47:01.6 15:10/M
43 Cara Wilks 42 592 47:06.4 15:12/M
44 Stephanie Williams 41 597 47:13.3 15:14/M
45 Robin Wendling 44 613 47:34.6 15:21/M
46 Sonia Alagna-Adkins 45 644 48:34.9 15:40/M
47 Chisty Krupp 42 657 48:56.8 15:47/M
48 Karen Hneider 45 669 49:19.6 15:55/M
49 Sharlene Timmons 50 674 49:27.3 15:57/M
50 Kathy Dehshiri 45 687 49:43.7 16:02/M
51 Natasha Isaacs 45 688 49:44.9 16:03/M
52 Tracy Birchmeier 42 692 50:00.8 16:08/M
53 Lisa Champion-Julian 44 698 50:10.5 16:11/M
54 Audrey Thayer 49 700 50:12.0 16:12/M
55 Amy Lynch 43 730 51:35.5 16:38/M
56 Anjali Nair 42 744 52:15.1 16:51/M
57 Robbin Larner 41 747 52:20.4 16:53/M
58 Cyndi Thomas 46 786 53:40.3 17:19/M
59 Lisa Smith 41 802 54:27.6 17:34/M
60 Kim Spaeth 42 810 54:47.5 17:40/M
61 Carmen McDonald 45 811 54:52.0 17:42/M
62 Jacqueline Wittenberg 45 813 55:08.6 17:47/M
63 Michele Kolleth 43 816 55:18.1 17:50/M
64 Julie Rairigh 48 817 55:18.6 17:50/M
65 Rebecca Balavitch 49 825 55:27.9 17:53/M
66 Sheryl Groden 46 833 55:40.2 17:57/M
67 Tina Cornell 43 853 56:31.4 18:14/M
68 Kathryn Barrel 48 859 57:34.7 18:34/M
69 Hongya Chen 41 860 57:50.6 18:39/M
70 Cheryl Hall 45 861 57:56.7 18:41/M
71 Jennifer Ashton 41 862 57:57.9 18:42/M
72 Andrea Torres 43 864 58:03.3 18:44/M
73 Ranae Roberts 48 871 58:52.3 18:59/M
74 Rebecca Miller-Hager 44 877 59:17.1 19:07/M
75 Erin Antaya 41 884 1:00:04.6 19:23/M
76 Michelle Riddell 47 892 1:01:04.1 19:42/M
77 Lisa Cardwell, M.d. 50 894 1:01:27.4 19:49/M
78 Tracey Gardner 42 905 1:02:40.2 20:13/M
79 Janet McDuffey 46 907 1:10:00.9 22:35/M
80 Jackie Gibson 44 916 1:14:20.0 23:59/M

Female 51 and up

Place Name Age Overall Total Time Pace
1 Angela Dardas 53 328 40:38.2 13:06/M
2 Joy Monroe 61 332 40:40.5 13:07/M
3 Sherry Devos 51 351 41:20.3 13:20/M
4 Alison Morin 62 457 44:05.0 14:13/M
5 Jeanne Montgomery 63 594 47:09.3 15:13/M
6 Karen Campbell 57 756 52:34.0 16:57/M
7 Joyce Barker 65 763 52:59.3 17:05/M
8 Giuseppa Bostwick 51 801 54:15.5 17:30/M
9 Vicki Pursley 62 868 58:39.9 18:55/M
10 Carolina Morga 51 899 1:01:32.0 19:51/M

Female no age provided

Place Name Age Overall Total Time Pace
1 Lauren Anderson 99 47 29:42.0 9:35/M
2 Jennifer Smith 99 52 29:51.7 9:38/M
3 Charissa Shadduck 99 78 31:21.3 10:07/M
4 Katlyn McQuillan 99 88 31:47.2 10:15/M
5 Kate Mozer 99 90 31:50.6 10:16/M
6 Heather Vertin 99 135 34:24.3 11:06/M
7 Jaclyn Samuel 99 159 35:16.4 11:23/M
8 Elise McQuillan 99 267 39:04.3 12:36/M
9 Catlin Jordan 99 406 43:05.3 13:54/M
10 Jody Grover 99 467 44:11.0 14:15/M
11 Kari Roy 99 496 44:40.1 14:25/M
12 Karyn Wendling 99 579 46:47.0 15:05/M
13 Pam Schnebelt 99 616 47:49.7 15:25/M
14 Cindy Grustafson 99 622 48:14.6 15:34/M
15 Lisa Denman 99 746 52:17.2 16:52/M
16 Joyce Barker 99 764 52:59.9 17:05/M
17 Shannon Steffes 99 774 53:21.5 17:13/M
18 Emily Latunski 99 787 53:41.9 17:19/M
19 Amy Helms 99 796 54:02.6 17:26/M

Male Overall Winners

Place Name Age Overall Total Time Pace
1 Charlie Bruckman 14 1 19:03.7 6:09/M

Male 12 and Under

Place Name Age Overall Total Time Pace
1 Dylan Bott 8 6 23:25.1 7:33/M
2 Valentino Paris 12 10 24:39.9 7:57/M
3 Brody Johnson 8 15 26:20.5 8:30/M
4 Conner Rose 10 18 26:40.8 8:36/M
5 Kenny Evans 8 63 30:56.0 9:59/M
6 Jake Wriggelsworth 11 80 31:24.9 10:08/M
7 Ethan Brunner 10 106 32:57.7 10:38/M
8 Carter Garland 8 199 36:49.8 11:53/M
9 Taejrio Thelen 12 259 38:46.6 12:30/M
10 Logan Freeman-Lawless 11 313 40:07.1 12:56/M
11 Tyler Putman 8 454 44:03.2 14:13/M
12 John Jildeh 12 455 44:03.3 14:13/M
13 Tristan Wininger 7 473 44:17.7 14:17/M
14 Austyn Lampron 7 620 48:13.0 15:33/M
15 Nathan Hunt 6 736 51:53.9 16:44/M
16 Mikeal Layman 7 789 53:45.6 17:20/M

Male 13 to 17

Place Name Age Overall Total Time Pace
1 Adrian Paris 15 2 19:15.3 6:13/M
2 Evan Wendling 13 4 22:20.2 7:12/M
3 Thomas Kelleher 13 9 24:36.3 7:56/M
4 Dylan Malzahn 13 134 34:23.0 11:05/M
5 Charles Sims 16 222 37:35.1 12:07/M
6 Takeru Scribner 15 230 37:44.9 12:10/M
7 Zachary Freeman 13 492 44:36.7 14:23/M

Male 18 to 29

Place Name Age Overall Total Time Pace
1 Justin Jabara 21 42 29:35.1 9:33/M
2 John Knoll 18 127 33:55.8 10:56/M
3 Cody Haddrill 19 422 43:22.3 13:59/M
4 Alan Ruan 21 532 45:41.7 14:44/M
5 Max Pfund 27 553 45:56.3 14:49/M
6 Evan Ganon 21 586 46:58.3 15:09/M
7 Jacob Alagna-Witte 20 646 48:36.4 15:41/M
8 Kevin Julian 19 759 52:36.1 16:58/M
9 Brandon Blair 18 762 52:51.7 17:03/M
10 Christopher Tidwell 18 915 1:12:56.1 23:32/M

Male 30 to 40

Place Name Age Overall Total Time Pace
1 Ben Dewitt 35 3 20:32.6 6:37/M
2 Jeff Pavlik 37 22 27:00.5 8:43/M
3 Kurt Vanbennekom 35 71 31:09.6 10:03/M
4 Chris Shadduck 39 76 31:20.1 10:06/M
5 Josh Zakoor 35 91 31:52.3 10:17/M
6 Brian Kiesling 37 103 32:45.9 10:34/M
7 Gregg Brunner 40 105 32:57.6 10:38/M
8 Mikhail Murshak 37 116 33:20.1 10:45/M
9 Nathan Lenneman 35 122 33:42.0 10:52/M
10 Michael Brya 38 139 34:34.4 11:09/M
11 Joseph Bushey 37 143 34:40.4 11:11/M
12 Brian Byars 40 151 34:57.5 11:16/M
13 Chris McCall 35 168 35:37.6 11:29/M
14 Adam Goss 36 180 35:58.7 11:36/M
15 Brandon Way 38 183 36:04.0 11:38/M
16 William Garland 34 200 36:49.9 11:53/M
17 B Breslin 38 238 38:08.4 12:18/M
18 Eben Osgood 32 284 39:23.8 12:42/M
19 Michael Roberts 36 325 40:33.8 13:05/M
20 Anthony Toune 40 343 40:56.0 13:12/M
21 Derrick Denslow 37 359 41:25.5 13:22/M
22 Francisco Garcia 39 382 42:05.5 13:35/M
23 Josh Nicotra 32 428 43:32.5 14:03/M
24 Tj Phillips 36 429 43:36.5 14:04/M
25 Jeremy Block 38 450 43:59.0 14:11/M
26 Robert Song 40 463 44:09.4 14:15/M
27 Joseph Diz 30 497 44:41.0 14:25/M
28 Evan Wendling 38 618 47:50.8 15:26/M
29 Edward Spagnuolo 38 652 48:44.9 15:43/M
30 Mark Bolin 33 672 49:25.3 15:56/M
31 Chris Trentin 38 693 50:00.9 16:08/M
32 Lindsay Wilkinson 38 701 50:12.2 16:12/M
33 Brandon Jodway 31 704 50:15.0 16:13/M
34 Thomas Hunt 37 712 50:41.8 16:21/M
35 Jeremy Hart 36 770 53:16.6 17:11/M
36 Keegan Sands 34 777 53:25.2 17:14/M

Male 41 to 50

Place Name Age Overall Total Time Pace
1 Craig Phillipich 42 8 24:13.7 7:49/M
2 Charles Rose 41 19 26:41.4 8:36/M
3 Eric Allen 43 30 28:20.1 9:08/M
4 Gary Bruff 42 36 28:58.6 9:21/M
5 Sashca Eisner 45 51 29:51.6 9:38/M
6 Rod Taylor 44 54 29:56.4 9:39/M
7 Michael Tressel 41 68 31:01.9 10:00/M
8 Scott Wriggelsworth 45 81 31:25.3 10:08/M
9 Brent Smith 41 109 33:00.3 10:39/M
10 Marc Paris 44 150 34:57.4 11:16/M
11 Brian Wendling 50 164 35:25.9 11:25/M
12 Troy Noeker 50 173 35:50.7 11:34/M
13 John Adado 48 188 36:17.5 11:42/M
14 Michael Boyle 45 189 36:23.9 11:44/M
15 Michael Dammann 42 208 37:07.0 11:58/M
16 John McQuillan 49 266 39:03.1 12:36/M
17 Mike Knauff 45 302 39:46.1 12:50/M
18 Todd Belding 41 308 39:58.3 12:54/M
19 Mark Parker 49 322 40:32.5 13:05/M
20 Tim Dardas 42 326 40:34.5 13:05/M
21 Nick Zachary 43 330 40:40.3 13:07/M
22 Brett Wittenberg 44 341 40:53.8 13:11/M
23 Matthew Winans 41 344 40:57.4 13:13/M
24 Jonas Wood 43 376 41:56.2 13:32/M
25 Jemar Sutton 43 398 42:29.5 13:42/M
26 Peter Cronk 43 402 42:49.0 13:49/M
27 Craig Wininger 42 474 44:18.8 14:17/M
28 Sandeep Kulkeini 42 523 45:15.8 14:36/M
29 Brian Neal 42 566 46:26.2 14:59/M
30 Jeff Wilks 42 571 46:34.2 15:01/M
31 Ashith Pabbathi 42 580 46:47.5 15:05/M
32 William Sullivan 42 598 47:15.5 15:15/M
33 Kent Clark 41 602 47:17.2 15:15/M
34 Brandon Julian 43 625 48:19.4 15:35/M
35 Paul Hinze 42 632 48:24.6 15:37/M
36 Emanuel Tho-Biaz 48 637 48:30.1 15:39/M
37 Brian Burton 43 658 48:57.0 15:47/M
38 Adam Candeub 47 706 50:16.2 16:13/M
39 Tom Gatza 45 755 52:33.6 16:57/M
40 Todd Bashore 41 768 53:10.0 17:09/M
41 Clinton Douglas 42 819 55:21.0 17:51/M
42 Gene Diebler 45 837 55:44.6 17:59/M

Male 51 and up

Place Name Age Overall Total Time Pace
1 Joseph Toth 77 84 31:41.5 10:13/M
2 Steven Riddell 55 270 39:07.5 12:37/M
3 Domenick Alagna 67 306 39:53.4 12:52/M
4 Rod Charles 51 411 43:08.3 13:55/M
5 Alex Mann 56 486 44:33.1 14:22/M
6 Richard Maxa 61 520 45:12.0 14:35/M
7 Robert Bourdeau 51 728 51:21.4 16:34/M
8 Rob Thomas 56 784 53:39.8 17:18/M
9 Larry Tibbits 68 841 56:06.6 18:06/M
10 Tim Roberts 59 870 58:51.3 18:59/M

Male no age provided

Place Name Age Overall Total Time Pace
1 Andrew Booth 99 732 51:41.5 16:40/M
2 Kaden Layman 99 791 53:53.1 17:23/M
3 Tim Layman 99 792 53:54.0 17:23/M